Voltar ao catálogo

LEMUR 2 DELOITTE-1

AtivoMeteoSSO
NORAD 63259·PAYLOAD·🇺🇸 United States

Lançado Mar 15, 2025 de Vandenberg Space Force Base

Loading…

Próximas Passagens (próximas 24 horas)

TLE

AtualizadoSource: Space-Track

Época: Sep 13, 2026, 16:46 UTC

1 63259U 25052BB  26256.69865725  .00002633  00000-0  22724-3 0  9992
2 63259  97.6770 148.0712 0001924 131.9046 228.2341 14.98110654 81949

Acompanhe LEMUR 2 DELOITTE-1 em tempo real com AllMySat

Download on the App Store